TimeEDT,TemperatureF,Dew PointF,Humidity,Sea Level PressureIn,VisibilityMPH,Wind Direction,Wind SpeedMPH,Gust SpeedMPH,PrecipitationIn,Events,Conditions,WindDirDegrees,DateUTC
12:15 AM,59.0,59.0,100,30.05,5.0,Calm,Calm,-,N/A,Rain,Light Rain,0,2013-03-31 04:15:00
12:35 AM,59.0,59.0,100,30.04,5.0,Calm,Calm,-,N/A,Rain,Rain,0,2013-03-31 04:35:00
12:55 AM,59.0,59.0,100,30.03,3.0,Calm,Calm,-,N/A,,Mist,0,2013-03-31 04:55:00
1:15 AM,59.0,59.0,100,30.03,3.0,Calm,Calm,-,N/A,,Mist,0,2013-03-31 05:15:00
1:35 AM,55.4,55.4,100,30.03,2.5,Calm,Calm,-,N/A,,Light Drizzle,0,2013-03-31 05:35:00
1:55 AM,55.4,55.4,100,30.03,3.0,Calm,Calm,-,N/A,,Mist,0,2013-03-31 05:55:00
2:15 AM,55.4,55.4,100,30.02,3.0,Calm,Calm,-,N/A,Rain,Light Rain,0,2013-03-31 06:15:00
2:35 AM,55.4,55.4,100,30.01,2.5,Calm,Calm,-,N/A,Rain,Rain,0,2013-03-31 06:35:00
2:55 AM,55.4,55.4,100,30.00,2.0,Calm,Calm,-,N/A,,Mist,0,2013-03-31 06:55:00
3:15 AM,55.4,55.4,100,30.00,4.0,Calm,Calm,-,N/A,,Light Drizzle,0,2013-03-31 07:15:00
3:35 AM,55.4,55.4,100,29.99,2.0,SSE,4.6,-,N/A,,Light Drizzle,160,2013-03-31 07:35:00
3:55 AM,55.4,55.4,100,29.99,4.0,South,3.5,-,N/A,,Clear,170,2013-03-31 07:55:00
4:15 AM,55.4,55.4,100,29.98,4.0,South,4.6,-,N/A,,Clear,170,2013-03-31 08:15:00
4:35 AM,55.4,55.4,100,29.97,5.0,SSW,3.5,-,N/A,,Clear,200,2013-03-31 08:35:00
4:55 AM,55.4,55.4,100,29.97,7.0,SW,5.8,-,N/A,,Clear,220,2013-03-31 08:55:00
5:15 AM,59.0,59.0,100,29.98,7.0,SW,4.6,-,N/A,Rain,Light Rain,230,2013-03-31 09:15:00
5:35 AM,59.0,59.0,100,29.98,7.0,SW,9.2,-,N/A,Rain,Rain,230,2013-03-31 09:35:00
5:55 AM,59.0,57.2,94,29.96,7.0,SSW,5.8,-,N/A,,Clear,210,2013-03-31 09:55:00
6:15 AM,59.0,57.2,94,29.96,7.0,SSW,3.5,-,N/A,,Scattered Clouds,210,2013-03-31 10:15:00
6:35 AM,59.0,57.2,94,29.96,7.0,South,4.6,-,N/A,,Scattered Clouds,190,2013-03-31 10:35:00
6:55 AM,59.0,59.0,100,29.96,7.0,South,4.6,-,N/A,,Scattered Clouds,180,2013-03-31 10:55:00
7:15 AM,59.0,57.2,94,29.96,7.0,South,5.8,-,N/A,,Scattered Clouds,190,2013-03-31 11:15:00
7:35 AM,59.0,59.0,100,29.96,5.0,SSW,5.8,-,N/A,Rain,Light Rain,200,2013-03-31 11:35:00
7:55 AM,59.0,59.0,100,29.97,5.0,SSW,8.1,-,N/A,,Mostly Cloudy,210,2013-03-31 11:55:00
8:15 AM,59.0,59.0,100,29.98,5.0,SW,6.9,-,N/A,,Scattered Clouds,220,2013-03-31 12:15:00
8:35 AM,59.0,57.2,94,29.99,5.0,SW,6.9,-,N/A,,Mostly Cloudy,230,2013-03-31 12:35:00
8:55 AM,59.0,57.2,94,29.98,5.0,SSW,4.6,-,N/A,,Mostly Cloudy,200,2013-03-31 12:55:00
9:15 AM,59.0,57.2,94,29.98,5.0,SW,6.9,-,N/A,,Scattered Clouds,220,2013-03-31 13:15:00
9:35 AM,59.0,57.2,94,29.99,5.0,SSW,4.6,-,N/A,,Scattered Clouds,210,2013-03-31 13:35:00
9:55 AM,59.0,55.4,88,29.99,5.0,SW,8.1,-,N/A,,Clear,230,2013-03-31 13:55:00
10:15 AM,60.8,59.0,94,30.00,5.0,WSW,8.1,-,N/A,,Scattered Clouds,250,2013-03-31 14:15:00
10:55 AM,64.4,57.2,77,29.99,7.0,West,13.8,18.4,N/A,,Mostly Cloudy,270,2013-03-31 14:55:00
11:15 AM,64.4,55.4,73,29.99,7.0,West,11.5,18.4,N/A,,Mostly Cloudy,270,2013-03-31 15:15:00
11:35 AM,64.4,53.6,68,29.99,7.0,WSW,16.1,21.9,N/A,,Mostly Cloudy,250,2013-03-31 15:35:00
11:55 AM,66.2,51.8,60,29.98,7.0,West,10.4,19.6,N/A,,Scattered Clouds,260,2013-03-31 15:55:00
12:15 PM,66.2,51.8,60,29.97,7.0,West,8.1,17.3,N/A,,Scattered Clouds,270,2013-03-31 16:15:00
12:35 PM,66.2,50.0,56,29.97,7.0,WSW,15.0,20.7,N/A,,Scattered Clouds,250,2013-03-31 16:35:00
12:55 PM,68.0,48.2,49,29.97,10.0,West,13.8,20.7,N/A,,Scattered Clouds,260,2013-03-31 16:55:00
1:15 PM,68.0,50.0,52,29.97,7.0,West,11.5,19.6,N/A,,Scattered Clouds,260,2013-03-31 17:15:00
1:35 PM,68.0,50.0,52,29.97,7.0,West,8.1,21.9,N/A,,Clear,270,2013-03-31 17:35:00
1:55 PM,69.8,50.0,49,29.95,7.0,WSW,8.1,16.1,N/A,,Clear,240,2013-03-31 17:55:00
2:15 PM,69.8,50.0,49,29.94,7.0,West,6.9,-,N/A,,Scattered Clouds,260,2013-03-31 18:15:00
2:35 PM,71.6,51.8,50,29.92,7.0,WSW,9.2,-,N/A,,Scattered Clouds,250,2013-03-31 18:35:00
2:55 PM,71.6,50.0,46,29.92,7.0,WSW,13.8,19.6,N/A,,Clear,240,2013-03-31 18:55:00
3:15 PM,71.6,51.8,50,29.91,7.0,West,10.4,17.3,N/A,,Clear,270,2013-03-31 19:15:00
3:35 PM,69.8,51.8,53,29.91,5.0,WSW,9.2,17.3,N/A,Rain,Rain,240,2013-03-31 19:35:00
3:55 PM,66.2,51.8,60,29.91,5.0,WSW,9.2,-,N/A,Rain,Light Rain,250,2013-03-31 19:55:00
4:15 PM,64.4,55.4,73,29.92,5.0,SW,6.9,-,N/A,Rain,Light Rain,230,2013-03-31 20:15:00
4:35 PM,64.4,55.4,73,29.90,5.0,WSW,5.8,-,N/A,,Light Drizzle,250,2013-03-31 20:35:00
4:55 PM,68.0,55.4,64,29.89,7.0,SW,5.8,-,N/A,,Clear,220,2013-03-31 20:55:00
5:15 PM,69.8,55.4,60,29.88,7.0,WSW,9.2,-,N/A,,Clear,240,2013-03-31 21:15:00
5:35 PM,69.8,55.4,60,29.88,7.0,SW,9.2,-,N/A,,Clear,230,2013-03-31 21:35:00
5:55 PM,69.8,53.6,56,29.88,7.0,SW,6.9,-,N/A,,Clear,230,2013-03-31 21:55:00
6:15 PM,69.8,51.8,53,29.88,10.0,WSW,6.9,-,N/A,,Clear,250,2013-03-31 22:15:00
6:35 PM,69.8,51.8,53,29.88,7.0,WSW,6.9,-,N/A,,Clear,250,2013-03-31 22:35:00
6:55 PM,69.8,51.8,53,29.88,7.0,West,5.8,-,N/A,,Clear,260,2013-03-31 22:55:00
7:15 PM,68.0,51.8,56,29.88,7.0,West,4.6,-,N/A,,Clear,260,2013-03-31 23:15:00
7:35 PM,68.0,51.8,56,29.88,10.0,West,4.6,-,N/A,,Clear,270,2013-03-31 23:35:00
8:15 PM,66.2,48.2,52,29.88,10.0,West,5.8,-,N/A,,Clear,270,2013-04-01 00:15:00
8:35 PM,66.2,46.4,49,29.88,10.0,West,6.9,-,N/A,,Clear,270,2013-04-01 00:35:00
8:55 PM,66.2,48.2,52,29.88,10.0,West,4.6,-,N/A,,Clear,270,2013-04-01 00:55:00
9:15 PM,64.4,48.2,56,29.88,10.0,West,4.6,-,N/A,,Clear,260,2013-04-01 01:15:00
9:35 PM,64.4,50.0,59,29.88,10.0,WSW,3.5,-,N/A,,Clear,240,2013-04-01 01:35:00
9:55 PM,62.6,51.8,68,29.89,10.0,SW,3.5,-,N/A,,Clear,230,2013-04-01 01:55:00
10:15 PM,60.8,51.8,72,29.88,10.0,Calm,Calm,-,N/A,,Clear,0,2013-04-01 02:15:00
10:35 PM,60.8,51.8,72,29.89,10.0,SW,3.5,-,N/A,,Scattered Clouds,230,2013-04-01 02:35:00
10:55 PM,60.8,53.6,77,29.90,7.0,SSW,6.9,-,N/A,Rain,Light Rain,200,2013-04-01 02:55:00
11:15 PM,60.8,55.4,82,29.90,5.0,SSW,3.5,-,N/A,Rain-Thunderstorm,Light Thunderstorms and Rain,210,2013-04-01 03:15:00
11:35 PM,60.8,59.0,94,29.91,10.0,West,5.8,-,N/A,Rain,Light Rain,260,2013-04-01 03:35:00
11:55 PM,60.8,59.0,94,29.92,4.0,SW,4.6,-,N/A,Rain,Rain,230,2013-04-01 03:55:00